STARLINK-35149 (65512 NORAD) Tracking and Keplerian Element Data

This shows tracking and keplerian element data for the satellite.

Feedback or suggestion? Click here.




ElementValue
Catalog65512
NameSTARLINK-35149
Epoch Orbit1640
Epoch Day354.18864309
Epoch Year2025
RAAN283.4306
Inclination53.1614
Eccentricity8.3E-05
Argument of Perigee193.6256
Mean Anonmoly166.4726
Mean Motion15.39643182
Decay Rate0.00033001
L11 65512U 25198W 25354.18864309 .00033001 00000+0 83081-3 0 9991
L22 65512 53.1614 283.4306 0000830 193.6256 166.4726 15.39643182 16405



Live tracking and technical data element details for STARLINK-35149 (NORAD 65512). STARLINK-35149 can be tracked NOW for your location showing map with azimuth and elevation plus other details from your city location.







IsCatalogInMostPopularTable: catalog: 65512, numindb: 11
Update: records affected: 1



GetName: 65512 STARLINK-35149

Hit Count: updated at: Sat, 11 Apr 2026 21:01:16 GMT